Weather History for KLHZ - September, 2013

Change the Weather History Date:

Friday, September 6, 2013

  Actual Average (KRDU) Record (KRDU)
Temperature  
Mean Temperature 74 °F 75 °F  
Max Temperature 84 °F 85 °F 104 °F (1954)
Min Temperature 64 °F 65 °F 49 °F (1997)
Degree Days  
Heating Degree Days 0 0  
Month to date heating degree days 0  
Since 1 July heating degree days 1  
Cooling Degree Days 9 10  
Month to date cooling degree days 64  
Year to date cooling degree days 1505  
Growing Degree Days 24 (Base 50)    
Moisture  
Dew Point 61 °F    
Average Humidity 66    
Maximum Humidity 88    
Minimum Humidity 37    
Precipitation  
Precipitation 0.00 in 0.16 in 4.96 in (1996)
Month to date precipitation 0.95  
Year to date precipitation 30.49  
Sea Level Pressure  
Sea Level Pressure 30.14 in    
Wind  
Wind Speed 2 mph (North)    
Max Wind Speed 7 mph    
Max Gust Speed 22 mph    
Visibility 10 miles    
Events      
T = Trace of Precipitation, MM = Missing Value Source: NWS Daily Summary

Daily Weather History Graph

Daily Weather History Graph

Search for Another Location

Airport or City:

Trip Planner

Search our weather history database for the weather conditions in past years. The results will help you decide how hot, cold, wet, or windy it might be!

Date:

Astronomy

Sep. 06, 2013 Rise Set
Actual Time 6:49 AM EDT 7:33 PM EDT
Civil Twilight 6:23 AM EDT 7:59 PM EDT
Nautical Twilight 5:52 AM EDT 8:29 PM EDT
Astronomical Twilight 5:20 AM EDT 9:01 PM EDT
Moon 7:55 AM EDT (9/6) 8:01 PM EDT (9/6)
Length of Visible Light 13h 36m
Length of Day
12h 44m
New Moon, 1% of the Moon is Illuminated
Sep 6
New Moon
Sep 12
First Quarter
Sep 19
Full
Sep 26
Last Quarter
Oct 4
New

Hourly Weather History & Observations

Time (EDT) Temp. Heat Index Dew Point Humidity Pressure Visibility Wind Dir Wind Speed Gust Speed Precip Events Conditions
12:15 AM 68.0 °F - 62.6 °F 83% 30.09 in 10.0 mi Calm Calm - N/A   Clear
12:35 AM 68.0 °F - 62.6 °F 83% 30.10 in 10.0 mi Calm Calm - N/A   Clear
12:55 AM 66.2 °F - 62.6 °F 88% 30.10 in 10.0 mi Calm Calm - N/A   Clear
1:15 AM 68.0 °F - 62.6 °F 83% 30.10 in 10.0 mi Calm Calm - N/A   Clear
1:35 AM 68.0 °F - 62.6 °F 83% 30.10 in 10.0 mi Calm Calm - N/A   Clear
1:55 AM 66.2 °F - 62.6 °F 88% 30.10 in 10.0 mi Calm Calm - N/A   Clear
2:15 AM 68.0 °F - 62.6 °F 83% 30.10 in 10.0 mi Calm Calm - N/A   Clear
2:35 AM 68.0 °F - 62.6 °F 83% 30.11 in 10.0 mi NNW 3.5 mph - N/A   Clear
2:55 AM 69.8 °F - 62.6 °F 78% 30.11 in 10.0 mi Calm Calm - N/A   Clear
3:15 AM 69.8 °F - 62.6 °F 78% 30.11 in 10.0 mi North 3.5 mph - N/A   Clear
3:35 AM 68.0 °F - 62.6 °F 83% 30.11 in 10.0 mi North 3.5 mph - N/A   Clear
3:55 AM 68.0 °F - 62.6 °F 83% 30.11 in 10.0 mi NNW 3.5 mph - N/A   Clear
4:15 AM 68.0 °F - 62.6 °F 83% 30.12 in 10.0 mi Calm Calm - N/A   Clear
4:35 AM 68.0 °F - 60.8 °F 78% 30.12 in 10.0 mi North 4.6 mph - N/A   Clear
4:55 AM 68.0 °F - 60.8 °F 78% 30.12 in 10.0 mi North 3.5 mph - N/A   Clear
5:15 AM 66.2 °F - 60.8 °F 83% 30.13 in 10.0 mi Calm Calm - N/A   Clear
5:35 AM 66.2 °F - 60.8 °F 83% 30.13 in 10.0 mi North 4.6 mph - N/A   Clear
5:55 AM 68.0 °F - 59.0 °F 73% 30.13 in 10.0 mi North 4.6 mph - N/A   Clear
6:15 AM 66.2 °F - 59.0 °F 78% 30.14 in 10.0 mi Calm Calm - N/A   Clear
6:35 AM 66.2 °F - 59.0 °F 78% 30.15 in 10.0 mi North 3.5 mph - N/A   Clear
6:55 AM 64.4 °F - 59.0 °F 83% 30.16 in 10.0 mi Calm Calm - N/A   Clear
7:15 AM 64.4 °F - 59.0 °F 83% 30.16 in 10.0 mi Calm Calm - N/A   Mostly Cloudy
7:35 AM 64.4 °F - 59.0 °F 83% 30.17 in 10.0 mi Calm Calm - N/A   Mostly Cloudy
7:55 AM 66.2 °F - 57.2 °F 73% 30.17 in 10.0 mi Calm Calm - N/A   Overcast
8:15 AM 66.2 °F - 57.2 °F 73% 30.18 in 10.0 mi Calm Calm - N/A   Scattered Clouds
8:35 AM 68.0 °F - 59.0 °F 73% 30.19 in 10.0 mi North 3.5 mph - N/A   Mostly Cloudy
8:55 AM 68.0 °F - 59.0 °F 73% 30.18 in 10.0 mi North 3.5 mph - N/A   Mostly Cloudy
9:15 AM 69.8 °F - 59.0 °F 68% 30.19 in 10.0 mi North 4.6 mph - N/A   Scattered Clouds
9:35 AM 73.4 °F - 60.8 °F 65% 30.19 in 10.0 mi North 5.8 mph - N/A   Clear
9:55 AM 73.4 °F - 62.6 °F 69% 30.20 in 10.0 mi North 6.9 mph - N/A   Clear
10:15 AM 75.2 °F - 62.6 °F 65% 30.19 in 10.0 mi North 5.8 mph - N/A   Clear
10:35 AM 77.0 °F - 64.4 °F 65% 30.20 in 10.0 mi North 4.6 mph - N/A   Clear
10:55 AM 78.8 °F - 64.4 °F 61% 30.20 in 10.0 mi Calm Calm - N/A   Clear
11:15 AM 78.8 °F - 64.4 °F 61% 30.20 in 10.0 mi NNE 5.8 mph - N/A   Clear
11:35 AM 80.6 °F 82.3 °F 64.4 °F 58% 30.20 in 10.0 mi NE 4.6 mph - N/A   Scattered Clouds
11:55 AM 80.6 °F 81.8 °F 62.6 °F 54% 30.20 in 10.0 mi North 6.9 mph - N/A   Scattered Clouds
12:15 PM 80.6 °F 81.1 °F 59.0 °F 48% 30.19 in 10.0 mi ENE 5.8 mph - N/A   Scattered Clouds
12:35 PM 82.4 °F 82.9 °F 60.8 °F 48% 30.18 in 10.0 mi North 5.8 mph - N/A   Scattered Clouds
12:55 PM 82.4 °F 82.5 °F 59.0 °F 45% 30.18 in 10.0 mi North 5.8 mph - N/A   Scattered Clouds
1:15 PM 82.4 °F 82.5 °F 59.0 °F 45% 30.18 in 10.0 mi North 5.8 mph - N/A   Mostly Cloudy
1:35 PM 82.4 °F 82.0 °F 57.2 °F 42% 30.17 in 10.0 mi NNE 4.6 mph - N/A   Scattered Clouds
1:55 PM 82.4 °F 82.0 °F 57.2 °F 42% 30.17 in 10.0 mi NNW 5.8 mph - N/A   Scattered Clouds
2:15 PM 82.4 °F 81.7 °F 55.4 °F 39% 30.16 in 10.0 mi North 5.8 mph - N/A   Scattered Clouds
2:35 PM 84.2 °F 83.0 °F 55.4 °F 37% 30.15 in 10.0 mi North 5.8 mph - N/A   Clear
2:55 PM 84.2 °F 83.0 °F 55.4 °F 37% 30.15 in 10.0 mi Calm Calm - N/A   Scattered Clouds
3:15 PM 84.2 °F 83.0 °F 55.4 °F 37% 30.14 in 10.0 mi Calm Calm - N/A   Scattered Clouds
3:35 PM 84.2 °F 83.0 °F 55.4 °F 37% 30.13 in 10.0 mi NE 4.6 mph - N/A   Scattered Clouds
3:55 PM 84.2 °F 83.5 °F 57.2 °F 40% 30.13 in 10.0 mi North 4.6 mph - N/A   Clear
4:15 PM 84.2 °F 83.5 °F 57.2 °F 40% 30.12 in 10.0 mi ENE 3.5 mph - N/A   Clear
4:35 PM 84.2 °F 83.5 °F 57.2 °F 40% 30.12 in 10.0 mi NNE 4.6 mph 21.9 mph N/A   Mostly Cloudy
4:55 PM 84.2 °F 84.4 °F 60.8 °F 45% 30.12 in 10.0 mi Calm Calm - N/A   Scattered Clouds
5:15 PM 82.4 °F 82.5 °F 59.0 °F 45% 30.12 in 10.0 mi North 4.6 mph - N/A   Clear
5:35 PM 82.4 °F 82.9 °F 60.8 °F 48% 30.11 in 10.0 mi Calm Calm - N/A   Clear
5:55 PM 82.4 °F 82.9 °F 60.8 °F 48% 30.11 in 10.0 mi Calm Calm - N/A   Clear
6:15 PM 82.4 °F 82.9 °F 60.8 °F 48% 30.11 in 10.0 mi Calm Calm - N/A   Scattered Clouds
6:35 PM 82.4 °F 82.9 °F 60.8 °F 48% 30.10 in 10.0 mi NNE 4.6 mph - N/A   Mostly Cloudy
6:55 PM 80.6 °F 81.1 °F 59.0 °F 48% 30.10 in 10.0 mi NNE 3.5 mph - N/A   Mostly Cloudy
7:15 PM 78.8 °F - 60.8 °F 54% 30.11 in 10.0 mi NNE 3.5 mph - N/A   Mostly Cloudy
7:35 PM 77.0 °F - 62.6 °F 61% 30.11 in 10.0 mi Calm Calm - N/A   Scattered Clouds
7:55 PM 77.0 °F - 62.6 °F 61% 30.12 in 10.0 mi ENE 5.8 mph - N/A   Scattered Clouds
8:15 PM 73.4 °F - 64.4 °F 73% 30.13 in 10.0 mi Calm Calm - N/A   Clear
8:35 PM 73.4 °F - 64.4 °F 73% 30.13 in 7.0 mi Calm Calm - N/A   Clear
8:55 PM 73.4 °F - 64.4 °F 73% 30.14 in 10.0 mi Calm Calm - N/A   Clear
9:15 PM 71.6 °F - 64.4 °F 78% 30.14 in 10.0 mi Calm Calm - N/A   Clear
9:35 PM 71.6 °F - 64.4 °F 78% 30.15 in 10.0 mi Calm Calm - N/A   Clear
9:55 PM 71.6 °F - 64.4 °F 78% 30.15 in 10.0 mi Calm Calm - N/A   Clear
10:15 PM 69.8 °F - 64.4 °F 83% 30.16 in 10.0 mi Calm Calm - N/A   Clear
10:35 PM 69.8 °F - 64.4 °F 83% 30.16 in 10.0 mi Calm Calm - N/A   Scattered Clouds
10:55 PM 69.8 °F - 64.4 °F 83% 30.16 in 10.0 mi Calm Calm - N/A   Scattered Clouds
11:15 PM 69.8 °F - 64.4 °F 83% 30.16 in 10.0 mi Calm Calm - N/A   Scattered Clouds
11:35 PM 68.0 °F - 62.6 °F 83% 30.16 in 10.0 mi Calm Calm - N/A   Clear
11:55 PM 69.8 °F - 62.6 °F 78% 30.16 in 10.0 mi Calm Calm - N/A   Scattered Clouds